Powrót do katalogu

LUMIR T1

AktywnyKrótkofalarstwoSSO
NORAD 56749·PAYLOAD·🇰🇷 South Korea

Wystrzelony May 25, 2023 z Naro Space Center

Loading…

Następne Przeloty (najbliższe 24 godziny)

TLE

ŚwieżeSource: Space-Track

Epoka: Sep 14, 2026, 14:57 UTC

1 56749U 23072G   26257.62333520  .00032114  00000-0  46893-3 0  9995
2 56749  97.4781 109.3245 0003557  43.0156 317.1375 15.55595077184348

Śledź LUMIR T1 w czasie rzeczywistym z AllMySat

Download on the App Store